Regional Weather Roundup
Issued by NWS

Home | Current Version | Previous Version | Text Only | Print | Product List | Glossary On
Versions: 1 2 3 4 5 6 7 8 9 10 11 12 13 14 15 16 17 18 19 20 21 22 23 24 25 26 27 28 29 30 31 32 33 34 35 36 37 38 39 40 41 42 43 44 45 46 47 48 49 50
000
ASUS43 KFSD 010010
RWRSD

WEATHER ROUNDUP FOR SOUTH DAKOTA
NATIONAL WEATHER SERVICE SIOUX FALLS SD
600 PM CST SAT JAN 31 2015

NOTE: "FAIR" INDICATES FEW OR NO CLOUDS BELOW 12,000 FEET WITH NO
SIGNIFICANT WEATHER AND/OR OBSTRUCTIONS TO VISIBILITY.


SDZ001>005-009-010-012>017-010100-
NORTHWEST AND NORTH CENTRAL SOUTH DAKOTA

CITY           SKY/WX    TMP DP  RH WIND       PRES   REMARKS
BUFFALO          N/A     18  15  88 E18       30.01R WCI   2
FAITH            N/A     17  11  77 NE18      30.09R WCI   1
MOBRIDGE       CLOUDY    17   3  54 NE15G24   30.18R WCI   2
$$

SDZ012>016-024>037-041>051-057-063-072>074-010100-
SOUTHWEST AND SOUTH CENTRAL SOUTH DAKOTA

CITY           SKY/WX    TMP DP  RH WIND       PRES   REMARKS
RAPID CTY ARPT FOG       20  19  96 NE12      30.02R VSB<1/4 WCI   8
PIERRE         CLOUDY    17   7  64 NE23      30.12S WCI  -1
CUSTER         CLOUDY    21  18  88 NE8       29.85R FOG     WCI  11
ELLSWORTH AFB  FRZ DRZL  19  18  93 E8        30.01  VSB<1/4 WCI   9
PHILIP         CLOUDY    18  16  92 NE17      30.09R WCI   3
PINE RIDGE     LGT SNOW  23  20  88 NE10      29.96R FOG     WCI  12
SPEARFISH      CLOUDY    19  19 100 MISG      29.98R
WINNER         LGT SNOW  21  18  88 NE16      30.05R FOG     WCI   7
$$

SDZ004>011-016>023-039-040-010100-
NORTHEAST SOUTH DAKOTA

CITY           SKY/WX    TMP DP  RH WIND       PRES   REMARKS
ABERDEEN       CLOUDY    13   1  59 NE21      30.23R WCI  -5
WATERTOWN      CLOUDY    17   8  67 NE20      30.11F WCI   1
SISSETON         N/A     14   2  58 N24       30.23F WCI  -5
$$

SDZ017-020-022-023-036>040-048>070-010100-
SOUTHEAST SOUTH DAKOTA

CITY           SKY/WX    TMP DP  RH WIND       PRES   REMARKS
SIOUX FALLS    LGT SNOW  26  23  88 NE17      30.05R VSB 3/4 WCI  13
HURON          CLOUDY    20  16  84 NE16      30.13R WCI   6
CHAMBERLAIN    CLOUDY    19  17  90 NE13G18   30.08R WCI   7
MITCHELL       FRZ RAIN  24  22  91 NE18      30.09R FOG     WCI  10
YANKTON        CLOUDY    28  25  86 NE14      30.02R WCI  17
$$

ABBREVIATIONS USED IN REMARKS
   TC - TEMPERATURE IN CELSIUS
  WCI - WIND CHILL INDEX
   HX - HEAT INDEX
  VSB - VISIBILITY



USA.gov is the U.S. government's official web portal to all federal, state and local government web resources and services.